TimeHST,TemperatureF,Dew PointF,Humidity,Sea Level PressureIn,VisibilityMPH,Wind Direction,Wind SpeedMPH,Gust SpeedMPH,PrecipitationIn,Events,Conditions,WindDirDegrees,DateUTC
12:16 AM,69.1,64.9,87,30.12,10.0,WSW,8.1,-,0.01,,Mostly Cloudy,240,2013-06-13 10:16:00
12:40 AM,69.1,66.0,90,30.11,10.0,WSW,8.1,-,0.03,Rain,Light Rain,250,2013-06-13 10:40:00
12:49 AM,69.8,66.2,88,30.11,10.0,SW,8.1,-,0.03,,Overcast,230,2013-06-13 10:49:00
12:53 AM,69.1,66.0,90,30.11,10.0,WSW,6.9,-,0.03,,Overcast,240,2013-06-13 10:53:00
1:32 AM,69.1,64.9,87,30.10,10.0,SW,5.8,-,0.06,Rain,Light Rain,220,2013-06-13 11:32:00
1:41 AM,69.1,66.0,90,30.10,2.5,ENE,10.4,16.1,0.07,Rain,Heavy Rain,70,2013-06-13 11:41:00
1:53 AM,70.0,66.0,87,30.10,5.0,ESE,4.6,-,0.28,Rain,Light Rain,120,2013-06-13 11:53:00
2:09 AM,70.0,66.0,87,30.09,10.0,West,6.9,-,0.00,,Overcast,260,2013-06-13 12:09:00
2:42 AM,69.1,66.0,90,30.09,10.0,SW,8.1,-,0.00,Rain,Light Rain,230,2013-06-13 12:42:00
2:53 AM,69.1,66.0,90,30.09,10.0,WSW,6.9,-,0.00,Rain,Light Rain,240,2013-06-13 12:53:00
3:53 AM,68.0,64.0,87,30.08,10.0,WSW,8.1,-,0.00,,Clear,240,2013-06-13 13:53:00
4:53 AM,68.0,63.0,84,30.08,10.0,WSW,8.1,-,N/A,,Mostly Cloudy,240,2013-06-13 14:53:00
5:53 AM,68.0,64.0,87,30.10,10.0,SSW,6.9,-,0.00,,Mostly Cloudy,200,2013-06-13 15:53:00
6:53 AM,70.0,66.0,87,30.11,10.0,WSW,5.8,-,N/A,,Clear,250,2013-06-13 16:53:00
7:53 AM,75.0,64.9,71,30.12,10.0,West,3.5,-,N/A,,Mostly Cloudy,280,2013-06-13 17:53:00
8:31 AM,71.1,66.9,87,30.15,2.5,East,10.4,-,0.02,Rain,Heavy Rain,90,2013-06-13 18:31:00
8:40 AM,70.0,66.9,90,30.15,5.0,Calm,Calm,-,0.10,Rain,Light Rain,0,2013-06-13 18:40:00
8:53 AM,71.1,66.0,84,30.14,10.0,SW,5.8,-,0.12,,Mostly Cloudy,230,2013-06-13 18:53:00
9:06 AM,72.0,66.0,81,30.14,10.0,WSW,6.9,-,N/A,,Mostly Cloudy,250,2013-06-13 19:06:00
9:26 AM,73.0,66.9,81,30.14,10.0,WSW,9.2,-,N/A,,Mostly Cloudy,250,2013-06-13 19:26:00
9:53 AM,75.0,64.9,71,30.14,10.0,West,5.8,-,N/A,,Mostly Cloudy,280,2013-06-13 19:53:00
10:53 AM,80.1,64.0,58,30.12,10.0,Calm,Calm,-,N/A,,Mostly Cloudy,0,2013-06-13 20:53:00
11:42 AM,79.0,64.9,62,30.12,10.0,Variable,5.8,-,N/A,,Mostly Cloudy,0,2013-06-13 21:42:00
11:53 AM,79.0,64.9,62,30.12,10.0,East,10.4,-,N/A,,Mostly Cloudy,100,2013-06-13 21:53:00
12:01 PM,78.1,66.0,66,30.12,10.0,ENE,12.7,-,0.00,Rain,Light Rain,70,2013-06-13 22:01:00
12:53 PM,80.1,66.9,64,30.11,10.0,Variable,5.8,-,0.00,,Mostly Cloudy,0,2013-06-13 22:53:00
1:53 PM,82.0,66.0,58,30.10,10.0,East,9.2,-,N/A,,Mostly Cloudy,90,2013-06-13 23:53:00
2:38 PM,75.0,66.0,73,30.11,10.0,East,5.8,20.7,0.00,Rain,Light Rain,100,2013-06-14 00:38:00
2:46 PM,75.0,68.0,79,30.11,10.0,Calm,Calm,-,0.01,,Mostly Cloudy,0,2013-06-14 00:46:00
2:53 PM,75.9,68.0,76,30.10,10.0,Calm,Calm,-,0.01,,Mostly Cloudy,0,2013-06-14 00:53:00
3:53 PM,80.1,66.9,64,30.09,10.0,North,9.2,-,N/A,,Mostly Cloudy,10,2013-06-14 01:53:00
4:14 PM,73.0,69.1,87,30.09,1.8,South,8.1,-,0.00,Rain,Heavy Rain,170,2013-06-14 02:14:00
4:23 PM,72.0,68.0,87,30.09,8.0,SSW,5.8,-,0.21,Rain,Light Rain,210,2013-06-14 02:23:00
4:32 PM,73.0,66.9,81,30.09,8.0,South,4.6,-,0.21,Rain,Light Rain,190,2013-06-14 02:32:00
4:53 PM,73.9,66.9,79,30.09,10.0,West,3.5,-,0.21,,Partly Cloudy,280,2013-06-14 02:53:00
5:53 PM,73.9,68.0,82,30.11,3.0,Calm,Calm,-,0.01,Rain,Heavy Rain,0,2013-06-14 03:53:00
5:57 PM,73.9,69.1,85,30.11,2.0,NE,4.6,-,0.02,Rain,Heavy Rain,50,2013-06-14 03:57:00
6:05 PM,72.0,66.0,81,30.11,10.0,Calm,Calm,-,0.10,Rain,Heavy Rain,0,2013-06-14 04:05:00
6:22 PM,73.0,66.9,81,30.11,10.0,Variable,3.5,-,0.15,,Mostly Cloudy,0,2013-06-14 04:22:00
6:53 PM,72.0,68.0,87,30.12,10.0,WSW,5.8,-,0.15,,Partly Cloudy,250,2013-06-14 04:53:00
7:53 PM,72.0,66.9,84,30.12,10.0,WSW,5.8,-,N/A,,Mostly Cloudy,240,2013-06-14 05:53:00
8:53 PM,71.1,66.9,87,30.14,4.0,East,5.8,-,0.01,Rain,Rain,100,2013-06-14 06:53:00
9:53 PM,71.1,68.0,90,30.14,10.0,West,5.8,-,0.03,,Overcast,260,2013-06-14 07:53:00
10:53 PM,70.0,66.9,90,30.14,10.0,WSW,5.8,-,N/A,,Overcast,250,2013-06-14 08:53:00
11:53 PM,70.0,64.0,81,30.13,10.0,SSW,6.9,-,0.00,,Overcast,200,2013-06-14 09:53:00